Location: Newark
(44.3681°N, 100.3364°W)
Time: 10:17:32
(UTC+00:00)

S-56A Canister/Altair - Pass Details

Date: 08 March 2020
Orbit: 634 x 2498 km, 38.9° (Epoch: 28 March)

Event Time Altitude Azimuth Distance (km) Brightness Sun altitude
Rises 17:10:05 0° 275° (W) 5,117 11.4 36.0°
Reaches altitude 10° 17:13:08 10° 272° (W) 4,337 11.2 36.3°
Maximum altitude 17:25:21 62° 196° (SSW) 2,584 11.2 37.4°
Drops below altitude 10° 17:40:08 10° 122° (ESE) 5,143 12.6 38.5°
Sets 17:44:07 0° 119° (ESE) 6,092 12.7 38.8°
